सभी
Ngukurr Airport (Roper River, Northern Territory) RPM मौसम
|
Roper River, Northern Territory (RPM / YNGU)
स्वच्छ आकाश
शांत हवाएं |
|
23 °C |
RPM Terminal Area Forecast
| Here is the undecoded forecast: 2026/05/04 20:01 YNGU 042001Z 0420/0508 VRB03KT CAVOK FM042200 10010KT CAVOK PROB30 0420/0421 0500 FG RMK T 22 25 32 33 Q 1012 1014 1014 1010 |
Recent RPM METAR history
| Date | Time (ACST) | Flight Rules | Wind Dir. | Speed | Type | Height AGL (ft) | Visibility | Temp (°C) | Temp (°F) | Dew Point (°C) | Dew Point (°F) | Rel. Humid. | Pressure | Density Altitude | Remarks |
|---|---|---|---|---|---|---|---|---|---|---|---|---|---|---|---|
| 05-मई | 21:30 | n/a | Calm | Missing | 23° | 73° | 21° | 69° | 89% | 1014 mb | 982 ft | ||||
| 05-मई | 20:30 | n/a | Calm | Missing | 24° | 75° | 21° | 69° | 83% | 1013 mb | 1,131 ft | ||||
| 05-मई | 19:30 | n/a | 70° | 2 kt | Missing | 25° | 77° | 21° | 69° | 79% | 1013 mb | 1,251 ft | |||
| 05-मई | 18:30 | n/a | 70° | 4 kt | Missing | 26° | 78° | 20° | 68° | 70% | 1012 mb | 1,401 ft | |||
| 05-मई | 17:30 | n/a | 70° | 8 kt | Missing | 29° | 84° | 20° | 68° | 58% | 1012 mb | 1,761 ft | |||
| 05-मई | 16:30 | n/a | 80° | 9 kt | Missing | 30° | 86° | 20° | 68° | 55% | 1011 mb | 1,910 ft | |||
| 05-मई | 15:30 | n/a | 80° | 9 kt | Missing | 31° | 87° | 20° | 68° | 52% | 1011 mb | 2,030 ft | |||
| 05-मई | 14:30 | n/a | 100° | 9 kt | Missing | 32° | 89° | 20° | 68° | 49% | 1011 mb | 2,150 ft | |||
| 05-मई | 13:30 | n/a | 80° | 8 kt | Missing | 32° | 89° | 19° | 66° | 46% | 1012 mb | 2,121 ft | |||
| 05-मई | 12:30 | n/a | 100° | 11 kt | Missing | 32° | 89° | 19° | 66° | 46% | 1013 mb | 2,091 ft | |||
| 05-मई | 11:30 | n/a | 110° | 9 kt | Missing | 31° | 87° | 18° | 64° | 46% | 1014 mb | 1,942 ft | |||
| 05-मई | 10:30 | n/a | 120° | 8 kt | Missing | 30° | 86° | 20° | 68° | 55% | 1014 mb | 1,822 ft | |||
| 05-मई | 09:30 | n/a | 110° | 7 kt | Missing | 28° | 82° | 19° | 66° | 58% | 1014 mb | 1,582 ft | |||
| 05-मई | 08:30 | n/a | 150° | 4 kt | Missing | 25° | 77° | 20° | 68° | 74% | 1014 mb | 1,222 ft | |||
| 05-मई | 07:30 | n/a | 130° | 2 kt | Missing | 23° | 73° | 20° | 68° | 83% | 1013 mb | 1,011 ft | |||
| 05-मई | 06:30 | n/a | Calm | Missing | 20° | 68° | 19° | 66° | 94% | 1013 mb | 651 ft | ||||
| 05-मई | 05:30 | n/a | Calm | Missing | 21° | 69° | 20° | 68° | 94% | 1012 mb | 801 ft | ||||
| 05-मई | 04:30 | n/a | 150° | 2 kt | Missing | 21° | 69° | 20° | 68° | 94% | 1012 mb | 801 ft | |||
| 05-मई | 03:30 | n/a | 150° | 1 kt | Missing | 22° | 71° | 22° | 71° | 100% | 1012 mb | 921 ft | |||
| 05-मई | 02:30 | n/a | Calm | Missing | 23° | 73° | 22° | 71° | 94% | 1012 mb | 1,041 ft | ||||
| 05-मई | 01:30 | n/a | 160° | 1 kt | Missing | 23° | 73° | 22° | 71° | 94% | 1013 mb | 1,011 ft | |||
| 05-मई | 00:30 | n/a | 170° | 2 kt | Missing | 23° | 73° | 23° | 73° | 100% | 1013 mb | 1,011 ft | |||
| 04-मई | 23:30 | n/a | 190° | 3 kt | Missing | 23° | 73° | 22° | 71° | 94% | 1014 mb | 982 ft | |||
| 04-मई | 22:30 | n/a | Calm | Missing | 23° | 73° | 22° | 71° | 94% | 1013 mb | 1,011 ft |
लॉगिन
| Your browser is unsupported. अपना ब्राऊजर अपग्रेड करें |
